Regional Weather Roundup
Issued by NWS Bismarck, ND

Home | Current Version | Previous Version | Text Only | Print | Product List | Glossary On
Versions: 1 2 3 4 5 6 7 8 9 10 11 12 13 14 15 16 17 18 19 20 21 22 23 24 25 26 27 28 29 30 31 32 33 34 35 36 37 38 39 40 41 42 43 44 45 46 47 48 49 50
000
ASUS43 KBIS 242302
RWRBIS

NWR BROADCAST TEXT
NATIONAL WEATHER SERVICE BISMARCK ND
600 PM CDT MON APR 24 2017

NOTE: "FAIR" INDICATES FEW OR NO CLOUDS BELOW 12,000 FEET WITH NO
SIGNIFICANT WEATHER AND/OR OBSTRUCTIONS TO VISIBILITY.


CITY           SKY/WX    TMP DP  RH WIND       PRES   REMARKS
WILLISTON      CLOUDY    36  27  69 NE12      29.75R
MINOT          CLOUDY    34  29  82 N13       29.73R
MINOT AFB      CLOUDY    33  26  76 NE14      29.73R
BISMARCK       CLOUDY    38  32  79 N13       29.69R
DICKINSON      CLOUDY    36  31  82 NE13      29.65S
GARRISON         N/A     32  27  81 NE9       29.71R
HETTINGER ARPT CLOUDY    42  36  79 NE14      29.65S
JAMESTOWN      CLOUDY    35  34  96 N16       29.60S
HAZEN          CLOUDY    36  28  75 N12       29.73R
LINTON           N/A     39  37  93 N12G22    29.66R
MANDAN         CLOUDY    36  32  87 N12G18    29.68R
STANLEY        CLOUDY    30  30 100 NE10G16   29.76R
TIOGA          CLOUDY    30  30 100 E15       29.75S WCI  19
WATFORD CITY   CLOUDY    34  30  86 NE13      29.72R
$$

CITY           SKY/WX    TMP DP  RH WIND       PRES   REMARKS
GRAND FORKS    DRIZZLE   36  34  92 N18       29.62S
GRAND FORKS AF CLOUDY    33  33  99 NE17      29.63S
DEVILS LAKE    CLOUDY    33  30  88 NE17      29.68R
FARGO          CLOUDY    44  42  93 NW20      29.54R
CAVALIER       CLOUDY    34  32  93 NE16G23   29.70R
GRAFTON        CLOUDY    32  32 100 N14       29.69R FOG
GWINNER        CLOUDY    43  39  87 MISG      29.56R
LANGDON        CLOUDY    32  32 100 NE22      29.69R WCI  19
ROLLA          LGT RAIN  30  30 100 NE17G24   29.73R WCI  18
$$

CITY           SKY/WX    TMP DP  RH WIND       PRES   REMARKS
ABERDEEN       CLOUDY    46  34  62 N15       29.58R
MOBRIDGE       CLOUDY    45  33  63 N18       29.62R
BUFFALO          N/A     52  39  61 N15       29.54R
RAPID CITY     FAIR      59  39  47 N15       29.57F
GLASGOW        CLOUDY    45  32  60 E21       29.68S
SIDNEY         CLOUDY    38  30  73 N10       29.72S
WOLF POINT     CLOUDY    40  30  67 NE13      29.73S
GLENDIVE       CLOUDY    42  35  76 NE15      29.67S
MILES CITY     PTSUNNY   52  38  58 NE10      29.61S
BAKER          CLOUDY    47  36  65 N9        29.63F
$$

CITY           SKY/WX    TMP DP  RH WIND       PRES   REMARKS
BILLINGS       PTSUNNY   54  39  57 NE9       29.55F
GREAT FALLS    CLOUDY    53  32  44 E7        29.57S
$$




USA.gov is the U.S. government's official web portal to all federal, state and local government web resources and services.